This is the latest recevied weather packets stored in our database for station/object K5BOU. If no packets are shown the sender has not sent any weather packets the latest 10 day(s).
| Time | Temp. | Humidity | Pressure | Rain* | Wind** | Luminosity | Snow |
|---|---|---|---|---|---|---|---|
| 1788362156 | 28.89° C | 92% | 1013.8 hPa | 0 mm | - | 347 W/m² | - |
| 1788361855 | 28.89° C | 93% | 1013.8 hPa | 0 mm | - | 327 W/m² | - |
| 1788361550 | 28.89° C | 94% | 1013.8 hPa | 0 mm | - | 213 W/m² | - |
| 1788361246 | 28.89° C | 94% | 1013.7 hPa | 0 mm | - | 259 W/m² | - |
| 1788360941 | 28.33° C | 95% | 1013.6 hPa | 0 mm | - | 229 W/m² | - |
| 1788360640 | 28.33° C | 96% | 1013.7 hPa | 0 mm | - | 225 W/m² | - |
| 1788360337 | 28.33° C | 97% | 1013.8 hPa | 0 mm | - | 236 W/m² | - |
| 1788360038 | 27.78° C | 98% | 1013.7 hPa | 0 mm | - | 221 W/m² | - |
| 1788359738 | 27.78° C | 98% | 1013.7 hPa | 0 mm | - | 227 W/m² | - |
| 1788359434 | 27.78° C | 99% | 1013.8 hPa | 0 mm | - | 212 W/m² | - |
| 1788359129 | 27.78° C | 99% | 1013.9 hPa | 0 mm | - | 179 W/m² | - |
| 1788358825 | 27.78° C | 99% | 1013.7 hPa | 0 mm | - | 161 W/m² | - |
| 1788358524 | 27.22° C | 99% | 1013.7 hPa | 0 mm | - | 155 W/m² | - |
| 1788358219 | 27.22° C | 99% | 1013.6 hPa | 0 mm | - | 151 W/m² | - |
| 1788357914 | 27.22° C | 99% | 1013.9 hPa | 0 mm | - | 138 W/m² | - |
| 1788357609 | 26.67° C | 99% | 1013.8 hPa | 0 mm | - | 115 W/m² | - |
| 1788357304 | 26.67° C | 99% | 1013.9 hPa | 0 mm | - | 92 W/m² | - |
| 1788357004 | 26.67° C | 99% | 1013.9 hPa | 0 mm | - | 91 W/m² | - |
| 1788356699 | 26.67° C | 99% | 1014 hPa | 0 mm | - | 77 W/m² | - |
| 1788356394 | 26.11° C | 99% | 1014 hPa | 0 mm | - | 77 W/m² | - |
| 1788356089 | 26.11° C | 99% | 1013.7 hPa | 0 mm | - | 79 W/m² | - |
| 1788355783 | 26.11° C | 99% | 1013.7 hPa | 0 mm | - | 76 W/m² | - |
| 1788355479 | 26.11° C | 99% | 1013.5 hPa | 0 mm | - | 68 W/m² | - |
| 1788355173 | 26.11° C | 99% | 1013.6 hPa | 0 mm | - | 57 W/m² | - |
| 1788354870 | 26.11° C | 99% | 1013.6 hPa | 0 mm | - | 54 W/m² | - |
* Rain latest hour (hover to see other rain measurements)
** Current wind speed in m/s (hover to see current wind gust speed)